Regional Weather Roundup
Issued by NWS Sterling, VA

Home | Current Version | Previous Version | Graphics & Text | Print | Product List | Glossary On
Versions: 1 2 3 4 5 6 7 8 9 10 11 12 13 14 15 16 17 18 19 20 21 22 23 24 25 26 27 28 29 30 31 32 33 34 35 36 37 38 39 40 41 42 43 44 45 46 47 48 49 50
226
ASUS41 KLWX 260510
RWRLWX

REGIONAL WEATHER ROUNDUP
NATIONAL WEATHER SERVICE BALTIMORE MD/WASHINGTON DC
100 AM EDT SUN MAR 26 2017

Note: "FAIR" indicates few or no clouds below 12,000 feet
with no significant weather and/or obstructions to visibility.
 TC=TEMPERATURE CELSIUS

 * =Non NWS site. Station does not report precipitation (e.g. rain,
    snow, etc.), thunder, or fog.

DCZ001-MDZ009-015-VAZ040>042-051-053>054-260600-
WASHINGTON METRO

CITY           SKY/WX    TMP DP  RH WIND       PRES   REMARKS
WASHINGTON NAT CLOUDY    58  47  66 E10       30.23R
DULLES         CLOUDY    63  49  60 E17       30.19R
ANDREWS AFB    CLOUDY    53  45  72 E13G20    30.22R
FT BELVOIR     CLOUDY    60  47  62 VRB3      30.21R
QUANTICO       CLOUDY    63  52  67 SW8       30.19S
COLLEGE PARK*  MOCLDY    54  45  71 E9G17     30.25R
LEESBURG*      MOCLDY    63  52  67 E10G18    30.21R
MANASSAS*        N/A     66  52  60 E7        30.18R

$$

MDZ006>007-011-014-260600-
BALTIMORE METRO

CITY           SKY/WX    TMP DP  RH WIND       PRES   REMARKS
BWI AIRPORT    CLOUDY    50  44  80 E15G24    30.26S
MD SCIENCE CTR   N/A     52  41  66 MISG      30.28S
MARTIN STATE   CLOUDY    50  45  81 NE6G17    30.30S
ANNAPOLIS      CLOUDY    53  44  71 E10       30.26R
FORT MEADE*    CLOUDY    50  43  76 E9        30.28S

$$

MDZ012-015-019>023-260600-
MARYLAND EASTERN SHORE

CITY           SKY/WX    TMP DP  RH WIND       PRES   REMARKS
OCEAN CITY     MOCLDY    46  43  89 NE13      30.26R
SALISBURY      CLOUDY    47  45  93 NE10      30.26R
BAY BRIDGE AP* CLOUDY    50  43  76 E13G20    30.27R
CAMBRIDGE*     MOCLDY    48  43  81 E9        30.25S
EASTON*        CLOUDY    49  41  72 E12G20    30.30R

$$

MDZ017>025-260600-
SOUTHERN MARYLAND

CITY           SKY/WX    TMP DP  RH WIND       PRES   REMARKS
PATUXENT RIVER CLOUDY    54  51  90 E8        30.22R
ST INIGOES     CLOUDY    58  50  75 NE14      30.21R
LEONARDTOWN*   CLOUDY    55  48  76 CALM      30.23R

$$

MDZ003>005-260600-
NORTH CENTRAL MARYLAND

CITY           SKY/WX    TMP DP  RH WIND       PRES   REMARKS
FREDERICK*     CLOUDY    59  54  82 E9        30.26R
HAGERSTOWN APT CLOUDY    56  47  71 NE15      30.21R
WESTMINSTER*   CLOUDY    54  46  76 E13G28    30.25R

$$

MDZ501>502-260600-
WESTERN MARYLAND

CITY           SKY/WX    TMP DP  RH WIND       PRES   REMARKS
OAKLAND*       PTCLDY    55  46  71 SE10      30.18S
CUMBERLAND*    MOCLDY    63  48  59 N8        30.20S

$$

VAZ025>031-260600-
SHENANDOAH VALLEY

CITY           SKY/WX    TMP DP  RH WIND       PRES   REMARKS
WINCHESTER*    CLOUDY    57  46  67 N6        30.17R
FRONT ROYAL*   CLOUDY    59  52  77 CALM      30.14S
LURAY*         PTCLDY    57  54  88 CALM      30.16S
NEW MARKET*    CLOUDY    54  49  85 SW3       30.16S
STAUNTON*      CLOUDY    54  48  80 CALM      30.19F
WAYNESBORO*    CLOUDY    58  50  76 CALM      30.18F

$$

WVZ021-048>050-054>055-260600-
EASTERN WEST VIRGINIA PANHANDLE

CITY           SKY/WX    TMP DP  RH WIND       PRES   REMARKS
MARTINSBURG    CLOUDY    57  47  69 N7        30.18R
PETERSBURG*    PTCLDY    54  51  91 CALM      30.16S

$$

VAZ036>039-050-260600-
CENTRAL FOOTHILLS

CITY           SKY/WX    TMP DP  RH WIND       PRES   REMARKS
CHARLOTTESVILL CLOUDY    63  50  62 S6        30.16F
CULPEPER*      MOCLDY    66  52  61 CALM      30.18S
ORANGE*        CLOUDY    57  50  77 CALM      30.19S
GORDONSVILLE*  CLOUDY    57  51  80 CALM      30.17S
WARRENTON*     CLOUDY    68  47  47 CALM      30.17S

$$

VAZ055>057-260600-
NORTH AND CENTRAL PIEDMONT

CITY           SKY/WX    TMP DP  RH WIND       PRES   REMARKS
FREDERICKSBRG* MOCLDY    60  52  75 SE3       30.18R
STAFFORD*      CLOUDY    62  52  71 CALM      30.22R

$$

NCZ024-NYZ072-PAZ021-071-VAZ022-071-260600-
OTHER REGIONAL OBSERVATIONS

CITY           SKY/WX    TMP DP  RH WIND       PRES   REMARKS
NEW YORK CITY  CLOUDY    42  34  73 E14G22    30.42S
PHILADELPHIA   CLOUDY    45  39  79 E12       30.35S
PITTSBURGH     MOCLDY    61  52  72 E7        30.11F
ROANOKE        PTCLDY    61  47  59 CALM      30.19F
RICHMOND       CLOUDY    61  52  72 S7        30.20R
RALEIGH        MOCLDY    62  51  67 SW9       30.22F

$$

ANZ530>537-260600-
MARINE OBSERVATIONS

STATION/POSITION TIME  TEMP    WIND        PRES
                       AIR SEA DIR/SP/G
                 (UTC) (F)     (DEG/KT/KT) (MB)
THOMAS PT LIGHT  0500   50 45   70/ 15/ 16   N/A
BALT KEY BRIDGE  0442   50      70/ 12/ 14 1025.2S
COVE POINT       0442   50     130/  2/  8 1024.1R
LEWISETTA        0442   64 49  230/  4/  5 1022.2S
SOLOMONS ISLAND  0442   56 46   60/  8/ 11   N/A
PINEY POINT      0436          100/  5/  6   N/A

$$





USA.gov is the U.S. government's official web portal to all federal, state and local government web resources and services.